Hourly Weather Roundup
Issued by NWS Central Illinois

Home | Current Version | Previous Version | Text Only | Print | Product List | Glossary On
Versions: 1 2 3 4 5 6 7 8 9 10 11 12 13 14 15 16 17 18 19 20 21 22 23 24 25 26 27 28 29 30 31 32 33 34 35 36 37 38 39 40 41 42 43 44 45 46 47 48 49 50
000
NZUS43 KILX 300410
HWRILX

AREA WEATHER ROUNDUP
NATIONAL WEATHER SERVICE, LINCOLN IL
1000 PM CST THU JAN 29 2015


CITY           SKY/WX    TMP DP  RH WIND       PRES   REMARKS
BLOOMINGTON    CLOUDY    33  25  73 NW18      30.32R WCI  22
CHAMPAIGN      CLOUDY    34  28  79 NW17      30.30R WCI  23
DECATUR        CLOUDY    34  25  69 NW15G26   30.34R WCI  24
FLORA          CLOUDY    34  29  83 NW14      30.36S WCI  25
GALESBURG      CLOUDY    31  24  73 NW17G26   30.37R WCI  20
JACKSONVILLE   CLOUDY    36  26  67 NW12G20   30.39R WCI  27
LACON          CLOUDY    32  25  73 NW15G23   30.33R WCI  22
LAWRENCEVILLE  CLOUDY    36  31  82 NW15      30.33R WCI  27
LITCHFIELD     CLOUDY    33  26  76 NW12      30.38R WCI  24
$$


CITY           SKY/WX    TMP DP  RH WIND       PRES   REMARKS
LINCOLN        CLOUDY    35  27  73 NW6       30.37R WCI  30
MACOMB         CLOUDY    32  25  74 NW16G24   30.42R WCI  21
MATTOON        CLOUDY    33  27  78 NW22      30.31R WCI  21
MT CARMEL AP   CLOUDY    37  32  81 NW18      30.33R WCI  27
OLNEY-NOBLE AP CLOUDY    34  32  93 NW13G21   30.35R WCI  25
PARIS          CLOUDY    34  31  90 NW9       30.30R WCI  26
PEORIA         CLOUDY    34  21  59 NW9G25    30.36R WCI  27
PONTIAC        CLOUDY    34  30  83 NW14      30.30R WCI  25
RANTOUL        CLOUDY    35  30  82 NW16G26   30.29R WCI  25
ROBINSON       CLOUDY    35  31  86 NW12      30.32S WCI  27
SPRINGFIELD    CLOUDY    34  26  72 NW15G22   30.37R WCI  24
TAYLORVILLE    CLOUDY    32  27  80 NW16G24   30.37R WCI  21
$$

...REGIONAL REPORTS...


CITY           SKY/WX    TMP DP  RH WIND       PRES   REMARKS
CHICAGO O`HARE CLOUDY    33  21  61 NW14      30.24R WCI  23
KANKAKEE       CLOUDY    34  24  66 NW8       30.27R WCI  27
MOLINE         CLOUDY    30  19  63 NW21G31   30.38R WCI  17
MOUNT VERNON   CLOUDY    36  25  64 NW6       30.38R WCI  31
PITTSFIELD     CLOUDY    34  24  67 NW15G22   30.43R WCI  25
QUINCY         CLOUDY    32  22  66 NW21G26   30.42R WCI  20
ROCKFORD       FLURRIES  32  18  56 NW18G30   30.32R WCI  20
$$


CITY           SKY/WX    TMP DP  RH WIND       PRES   REMARKS
BURLINGTON     CLOUDY    30  21  69 N17G31    30.41R WCI  18
CEDAR RAPIDS   CLOUDY    26  18  71 NW21G29   30.41R WCI  12
DES MOINES     CLEAR     28  19  69 N14       30.50R WCI  17
KIRKSVILLE     CLEAR     29  22  75 N12       30.45S WCI  19
OTTUMWA        MOCLDY    28  20  71 NW20G25   30.46R WCI  15
ST LOUIS       CLOUDY    37  25  61 N12       30.42R WCI  29
$$


CITY           SKY/WX    TMP DP  RH WIND       PRES   REMARKS
TERRE HAUTE    CLOUDY    35  29  78 NW12G20   30.28R WCI  27
EVANSVILLE     CLOUDY    37  31  78 NW9       30.34R WCI  30
INDIANAPOLIS   CLOUDY    31  27  85 NW12      30.23R WCI  22
LAFAYETTE      CLOUDY    33  27  78 NW10      30.24R WCI  25
MADISON        CLOUDY    28  14  55 N15G25    30.31R WCI  16
MILWAUKEE      MOCLDY    30  13  49 N17G25    30.27R WCI  18
$$





USA.gov is the U.S. government's official web portal to all federal, state and local government web resources and services.